M I D A S
Marine Information and Data Acquisition System
Tripno 1825 of the Zeeleeuw from 2009-12-14 07:26:12 to 2009-12-14 14:51:29
Back to CruiseResearch ActivitiesStationsMapUnderway DataData graphs

EquipmentUnitsComments
TimeDGPSUTC
LatitudeDGPSDM.mWGS84
LongitudeDGPSDM.mWGS84
SpeedMeteo Stationm/sRelative wind speed
DirectionMeteo StationdegRelative wind direction
TemperatureMeteo Stationdeg CelciusAir temperature
PressureMeteo StationPaAtmospheric pressure
HumidityMeteo Station%Relative humidity
Missing or incorrect values are displayed as -999
Metereological data collected by the RV Zeeleeuw from 2009-12-14 07:28:33 to 2009-12-14 15:00:18
Time Latitude Longitude Speed Direction Temperature Pressure Humidity
2009-12-14 07:29 51°13.675 2°55.897 -999 22 -1.2 102290 33
2009-12-14 07:30 51°13.695 2°55.805 -999 22 -1.2 102290 33
2009-12-14 07:31 51°13.699 2°55.743 -999 342 -1.2 102290 33
2009-12-14 07:32 51°13.713 2°55.746 0.7 351 -1.2 102300 31
2009-12-14 07:33 51°13.7 2°55.74 0.1 31 -1.2 102300 31
2009-12-14 07:34 51°13.752 2°55.697 2.6 345 -1.2 102300 33
2009-12-14 07:35 51°13.853 2°55.616 2.7 342 -1.2 102300 30
2009-12-14 07:36 51°13.981 2°55.517 3.5 342 -1.2 102300 31
2009-12-14 07:37 51°14.118 2°55.41 3.8 344 -1.1 102300 35
2009-12-14 07:38 51°14.246 2°55.268 2.2 346 -1.1 102300 35
2009-12-14 07:39 51°14.355 2°55.051 2.9 353 -1.2 102290 31
2009-12-14 07:40 51°14.479 2°54.848 5.3 351 -1 102290 36
2009-12-14 07:41 51°14.631 2°54.677 4.9 354 -0.9 102290 32
2009-12-14 07:42 51°14.79 2°54.514 5.2 353 -0.7 102300 35
2009-12-14 07:43 51°14.952 2°54.37 6.5 354 -0.6 102300 32
2009-12-14 07:44 51°15.109 2°54.223 5.3 353 -0.4 102290 32
2009-12-14 07:45 51°15.266 2°54.082 6.3 355 -0.3 102290 34
2009-12-14 07:46 51°15.428 2°53.936 5 359 -0.2 102290 34
2009-12-14 07:47 51°15.588 2°53.791 6 353 -0.1 102290 32
2009-12-14 07:48 51°15.748 2°53.649 5.4 355 -999 102290 33
2009-12-14 07:49 51°15.906 2°53.511 5.9 -999 0.1 102290 34
2009-12-14 07:50 51°16.066 2°53.367 5.7 360 0.2 102290 31
2009-12-14 07:51 51°16.226 2°53.224 6.8 358 0.3 102290 31
2009-12-14 07:52 51°16.387 2°53.085 7.4 356 0.3 102290 31
2009-12-14 07:53 51°16.551 2°52.946 5.7 354 0.3 102290 32
2009-12-14 07:54 51°16.707 2°52.81 5.7 356 0.4 102290 31
2009-12-14 07:55 51°16.866 2°52.673 7.5 356 0.4 102290 34
2009-12-14 07:56 51°17.02 2°52.542 7 359 0.4 102280 33
2009-12-14 07:57 51°17.179 2°52.404 5.9 5 0.5 102290 32
2009-12-14 07:58 51°17.332 2°52.27 6.2 -999 0.5 102290 35
2009-12-14 07:59 51°17.492 2°52.132 6.8 -999 0.5 102290 35
2009-12-14 08:00 51°17.654 2°52.045 7.4 354 0.6 102290 32
2009-12-14 08:01 51°17.827 2°52.017 6.5 351 0.6 102280 34
2009-12-14 08:02 51°18.004 2°51.99 7.5 358 0.5 102280 34
2009-12-14 08:03 51°18.175 2°51.961 6.1 355 0.5 102280 32
2009-12-14 08:04 51°18.353 2°51.927 6.7 355 0.5 102280 34
2009-12-14 08:05 51°18.526 2°51.89 6.3 357 0.6 102290 33
2009-12-14 08:06 51°18.702 2°51.847 7.3 355 0.6 102280 34
2009-12-14 08:07 51°18.876 2°51.807 7.1 358 0.6 102280 35
2009-12-14 08:08 51°19.053 2°51.766 6.6 1 0.7 102290 32
2009-12-14 08:09 51°19.224 2°51.727 5.3 355 0.7 102280 32
2009-12-14 08:10 51°19.398 2°51.689 4.9 1 0.9 102280 34
2009-12-14 08:11 51°19.575 2°51.644 4.3 358 0.8 102280 36
2009-12-14 08:12 51°19.746 2°51.601 6.1 354 0.8 102280 32
2009-12-14 08:13 51°19.925 2°51.566 5.5 359 0.8 102280 34
2009-12-14 08:14 51°20.099 2°51.53 5.2 359 0.8 102280 32
2009-12-14 08:15 51°20.277 2°51.491 5.1 359 0.8 102270 34
2009-12-14 08:16 51°20.451 2°51.451 4.9 2 0.8 102270 34
2009-12-14 08:17 51°20.618 2°51.345 4.3 10 0.8 102270 36
2009-12-14 08:18 51°20.774 2°51.202 3.4 5 0.9 102280 32
2009-12-14 08:19 51°20.934 2°51.055 2.6 -999 0.9 102270 32
2009-12-14 08:20 51°21.1 2°50.914 3 358 0.9 102270 36
2009-12-14 08:21 51°21.265 2°50.802 4.8 1 0.9 102260 33
2009-12-14 08:22 51°21.434 2°50.687 4.9 -999 0.9 102260 36
2009-12-14 08:23 51°21.61 2°50.626 6.3 357 0.9 102260 36
2009-12-14 08:24 51°21.79 2°50.618 7.1 360 1 102260 35
2009-12-14 08:25 51°21.969 2°50.617 7.6 3 1.1 102260 33
2009-12-14 08:26 51°22.152 2°50.614 7.1 359 1 102240 36
2009-12-14 08:27 51°22.33 2°50.61 7.1 355 1 102240 36
2009-12-14 08:28 51°22.51 2°50.604 6.9 357 1 102240 33
2009-12-14 08:29 51°22.692 2°50.594 5.8 4 1 102240 34
2009-12-14 08:30 51°22.874 2°50.585 6.2 1 1.2 102260 35
2009-12-14 08:31 51°23.056 2°50.581 7.8 2 1.3 102240 33
2009-12-14 08:32 51°23.233 2°50.572 5.9 7 1.2 102240 34
2009-12-14 08:33 51°23.41 2°50.563 7.1 -999 1.3 102240 34
2009-12-14 08:34 51°23.585 2°50.553 5.3 360 1.3 102250 34
2009-12-14 08:35 51°23.762 2°50.544 6.5 358 1.3 102250 36
2009-12-14 08:36 51°23.941 2°50.537 7.5 357 1.4 102240 33
2009-12-14 08:37 51°24.119 2°50.523 8 359 1.4 102250 35
2009-12-14 08:38 51°24.296 2°50.511 5.9 359 1.4 102250 34
2009-12-14 08:39 51°24.475 2°50.501 6.4 5 1.5 102240 35
2009-12-14 08:40 51°24.657 2°50.49 5.4 7 1.4 102250 34
2009-12-14 08:41 51°24.835 2°50.486 6 357 1.5 102260 33
2009-12-14 08:42 51°25.015 2°50.479 7.4 357 1.5 102250 34
2009-12-14 08:43 51°25.194 2°50.467 6.7 357 1.6 102250 34
2009-12-14 08:44 51°25.375 2°50.455 7.3 359 1.6 102250 37
2009-12-14 08:45 51°25.558 2°50.447 6 359 1.5 102250 35
2009-12-14 08:46 51°25.737 2°50.442 5.1 2 1.5 102260 35
2009-12-14 08:47 51°25.918 2°50.439 7.1 356 1.6 102250 36
2009-12-14 08:48 51°26.099 2°50.435 6.8 1 1.7 102250 33
2009-12-14 08:49 51°26.283 2°50.432 6.6 359 1.6 102240 36
2009-12-14 08:50 51°26.464 2°50.43 7.2 355 1.7 102260 34
2009-12-14 08:51 51°26.645 2°50.424 4.4 6 1.7 102250 33
2009-12-14 08:52 51°26.824 2°50.417 7.4 360 1.7 102250 33
2009-12-14 08:53 51°27.007 2°50.412 7.3 358 1.6 102250 33
2009-12-14 08:54 51°27.179 2°50.402 7.5 6 1.7 102250 36
2009-12-14 08:55 51°27.36 2°50.393 6.7 359 1.8 102240 32
2009-12-14 08:56 51°27.539 2°50.387 7.3 355 1.8 102240 34
2009-12-14 08:57 51°27.719 2°50.381 6.6 354 1.8 102240 33
2009-12-14 08:58 51°27.901 2°50.373 6.1 356 1.7 102240 35
2009-12-14 08:59 51°28.083 2°50.374 6 360 1.6 102240 36
2009-12-14 09:00 51°28.27 2°50.373 6.5 358 1.7 102230 35
2009-12-14 09:01 51°28.451 2°50.369 4.3 359 1.7 102240 34
2009-12-14 09:02 51°28.637 2°50.37 7.1 354 1.7 102240 33
2009-12-14 09:03 51°28.818 2°50.373 6.4 356 1.7 102230 33
2009-12-14 09:04 51°29.001 2°50.379 4.5 355 1.7 102240 32
2009-12-14 09:05 51°29.184 2°50.384 5.7 353 1.8 102240 33
2009-12-14 09:06 51°29.366 2°50.399 7.1 358 1.7 102230 34
2009-12-14 09:07 51°29.516 2°50.551 7.7 341 1.8 102230 34
2009-12-14 09:08 51°29.606 2°50.81 10.7 339 1.7 102230 33
2009-12-14 09:09 51°29.672 2°51.101 9.2 340 1.7 102240 34
2009-12-14 09:10 51°29.734 2°51.385 10.9 340 1.7 102240 33
2009-12-14 09:11 51°29.802 2°51.671 10.5 339 1.7 102230 34
2009-12-14 09:12 51°29.876 2°51.952 11.8 341 1.7 102230 32
2009-12-14 09:13 51°29.956 2°52.233 11.4 340 1.7 102230 34
2009-12-14 09:14 51°30.025 2°52.514 10.5 337 1.8 102240 35
2009-12-14 09:15 51°30.094 2°52.8 9.3 334 1.7 102240 35
2009-12-14 09:16 51°30.166 2°53.09 12 338 1.6 102250 32
2009-12-14 09:17 51°30.237 2°53.375 9.7 340 1.7 102240 34
2009-12-14 09:18 51°30.31 2°53.661 11.5 340 1.7 102240 34
2009-12-14 09:19 51°30.384 2°53.94 11.5 342 1.6 102220 32
2009-12-14 09:20 51°30.458 2°54.226 9.8 341 1.6 102240 34
2009-12-14 09:21 51°30.532 2°54.513 10.6 338 1.5 102230 34
2009-12-14 09:22 51°30.604 2°54.801 11.3 338 1.5 102230 32
2009-12-14 09:23 51°30.678 2°55.089 8.4 340 1.5 102230 32
2009-12-14 09:24 51°30.754 2°55.374 12.4 344 1.5 102230 35
2009-12-14 09:25 51°30.827 2°55.661 10.4 341 1.5 102230 34
2009-12-14 09:26 51°30.9 2°55.946 11.5 342 1.5 102230 34
2009-12-14 09:27 51°30.974 2°56.233 11.7 341 1.5 102240 33
2009-12-14 09:28 51°31.049 2°56.52 9.6 345 1.4 102230 33
2009-12-14 09:29 51°31.126 2°56.808 9.8 342 1.5 102240 33
2009-12-14 09:30 51°31.201 2°57.096 10.3 344 1.4 102230 34
2009-12-14 09:31 51°31.274 2°57.387 8.6 340 1.4 102240 35
2009-12-14 09:32 51°31.375 2°57.648 7.3 345 1.3 102230 33
2009-12-14 09:33 51°31.528 2°57.831 8.6 350 1.3 102220 32
2009-12-14 09:34 51°31.682 2°58.005 8.1 349 1.2 102230 34
2009-12-14 09:35 51°31.833 2°58.206 9.2 346 1.2 102230 33
2009-12-14 09:36 51°31.979 2°58.409 10.5 349 1.2 102230 34
2009-12-14 09:37 51°32.123 2°58.616 10.5 344 1.1 102220 35
2009-12-14 09:38 51°32.268 2°58.822 8.4 343 1.1 102230 33
2009-12-14 09:39 51°32.41 2°59.024 9.5 347 1.1 102220 33
2009-12-14 09:40 51°32.558 2°59.234 8.7 344 1.1 102230 35
2009-12-14 09:41 51°32.703 2°59.434 7.6 353 1.2 102230 35
2009-12-14 09:42 51°32.876 2°59.455 5 3 1.1 102240 35
2009-12-14 09:43 51°32.981 2°59.238 0.1 12 1.1 102260 34
2009-12-14 09:44 51°33.044 2°58.982 -999 3 1.1 102260 33
2009-12-14 09:45 51°33.118 2°58.73 -999 18 1.1 102260 33
2009-12-14 09:46 51°33.208 2°58.494 0.2 15 1.1 102260 33
2009-12-14 09:47 51°33.315 2°58.27 -999 10 1.1 102260 36
2009-12-14 09:48 51°33.424 2°58.047 0.3 11 1.1 102260 35
2009-12-14 09:49 51°33.535 2°57.821 -999 2 1.2 102260 34
2009-12-14 09:50 51°33.647 2°57.593 0.8 6 1.3 102260 32
2009-12-14 09:51 51°33.759 2°57.364 1.7 5 1.2 102260 33
2009-12-14 09:52 51°33.869 2°57.133 2.1 349 1.2 102250 31
2009-12-14 09:53 51°33.978 2°56.902 -999 354 1.1 102260 33
2009-12-14 09:54 51°34.09 2°56.674 -999 4 1.1 102260 33
2009-12-14 09:55 51°34.204 2°56.441 -999 347 1.1 102260 33
2009-12-14 09:56 51°34.304 2°56.207 0.1 9 1.2 102270 33
2009-12-14 09:57 51°34.352 2°55.936 -999 22 1.3 102270 34
2009-12-14 09:58 51°34.321 2°55.665 4.1 24 1.5 102260 32
2009-12-14 09:59 51°34.251 2°55.409 5.3 21 1.6 102260 32
2009-12-14 10:00 51°34.161 2°55.168 4.6 24 1.6 102260 35
2009-12-14 10:01 51°34.054 2°54.947 5.7 24 1.6 102260 33
2009-12-14 10:02 51°33.939 2°54.737 4.8 24 1.5 102250 35
2009-12-14 10:03 51°33.824 2°54.527 3.6 23 1.5 102250 36
2009-12-14 10:04 51°33.709 2°54.314 5.5 25 1.5 102260 31
2009-12-14 10:05 51°33.595 2°54.103 6.1 24 1.5 102260 35
2009-12-14 10:06 51°33.483 2°53.89 2.6 19 1.5 102250 32
2009-12-14 10:07 51°33.375 2°53.666 4.9 21 1.5 102250 32
2009-12-14 10:08 51°33.278 2°53.445 5.1 245 1.6 102240 33
2009-12-14 10:09 51°33.184 2°53.214 5.3 19 1.7 102240 34
2009-12-14 10:10 51°33.088 2°52.985 4.5 22 1.8 102240 35
2009-12-14 10:11 51°32.991 2°52.757 2.8 24 1.7 102240 32
2009-12-14 10:12 51°32.892 2°52.531 3.1 21 1.8 102240 30
2009-12-14 10:13 51°32.795 2°52.306 4.7 22 1.8 102240 32
2009-12-14 10:14 51°32.699 2°52.078 4.4 21 1.8 102230 36
2009-12-14 10:15 51°32.601 2°51.853 3.2 19 1.8 102230 36
2009-12-14 10:16 51°32.504 2°51.627 3.7 19 1.8 102220 32
2009-12-14 10:17 51°32.409 2°51.397 5.2 20 1.9 102230 32
2009-12-14 10:18 51°32.315 2°51.168 4 27 1.9 102220 32
2009-12-14 10:19 51°32.22 2°50.939 4 25 1.9 102220 36
2009-12-14 10:20 51°32.124 2°50.706 3.6 20 1.9 102230 34
2009-12-14 10:21 51°32.029 2°50.486 4 245 2 102220 36
2009-12-14 10:22 51°31.931 2°50.264 3.4 25 2 102220 36
2009-12-14 10:23 51°31.833 2°50.04 3.8 20 2 102230 35
2009-12-14 10:24 51°31.738 2°49.809 3.7 26 2 102220 34
2009-12-14 10:25 51°31.647 2°49.587 4.5 24 2.1 102210 33
2009-12-14 10:26 51°31.552 2°49.36 5.8 19 2 102220 32
2009-12-14 10:27 51°31.452 2°49.146 4.9 18 2 102220 34
2009-12-14 10:28 51°31.343 2°48.942 4.1 18 2 102220 35
2009-12-14 10:29 51°31.234 2°48.737 3.2 26 1.9 102220 32
2009-12-14 10:30 51°31.128 2°48.528 2.9 19 2 102230 36
2009-12-14 10:31 51°31.023 2°48.321 3.4 18 1.9 102220 36
2009-12-14 10:32 51°30.92 2°48.111 4.6 25 1.9 102210 34
2009-12-14 10:33 51°30.817 2°47.901 1.7 27 1.9 102210 34
2009-12-14 10:34 51°30.711 2°47.695 3.7 20 2 102210 32
2009-12-14 10:35 51°30.606 2°47.488 4.4 27 2.1 102200 32
2009-12-14 10:36 51°30.504 2°47.279 4.8 23 2.1 102200 35
2009-12-14 10:37 51°30.506 2°47.038 0.1 340 2 102210 36
2009-12-14 10:38 51°30.669 2°46.949 4.1 2 2 102200 36
2009-12-14 10:39 51°30.867 2°46.971 6.3 357 1.9 102200 33
2009-12-14 10:40 51°31.071 2°47.001 5.1 354 1.8 102180 36
2009-12-14 10:41 51°31.27 2°47.034 7.1 351 1.8 102190 35
2009-12-14 10:42 51°31.472 2°47.072 5.7 354 1.7 102200 36
2009-12-14 10:43 51°31.678 2°47.113 4.6 353 1.7 102190 35
2009-12-14 10:44 51°31.879 2°47.156 5.7 357 1.7 102190 34
2009-12-14 10:45 51°32.078 2°47.196 8 348 1.7 102190 32
2009-12-14 10:46 51°32.28 2°47.234 6.9 355 1.7 102190 35
2009-12-14 10:47 51°32.483 2°47.262 5.9 351 1.7 102200 34
2009-12-14 10:48 51°32.686 2°47.291 8.5 349 1.9 102190 33
2009-12-14 10:49 51°32.889 2°47.32 6.2 354 1.8 102190 33
2009-12-14 10:50 51°33.095 2°47.331 4.4 359 1.7 102200 33
2009-12-14 10:51 51°33.297 2°47.337 5 355 1.7 102200 34
2009-12-14 10:52 51°33.499 2°47.342 5.6 353 1.7 102190 31
2009-12-14 10:53 51°33.699 2°47.35 6.9 352 1.7 102200 34
2009-12-14 10:54 51°33.904 2°47.352 6.9 353 1.7 102200 33
2009-12-14 10:55 51°34.099 2°47.354 6.5 354 1.6 102200 36
2009-12-14 10:56 51°34.309 2°47.361 3.6 357 1.6 102200 33
2009-12-14 10:57 51°34.506 2°47.348 4.4 352 1.8 102190 37
2009-12-14 10:58 51°34.711 2°47.323 3.6 353 1.7 102210 36
2009-12-14 10:59 51°34.917 2°47.3 3.6 357 1.7 102200 34
2009-12-14 11:00 51°35.119 2°47.276 6 2 1.8 102190 35
2009-12-14 11:01 51°35.322 2°47.259 4.4 352 2 102200 33
2009-12-14 11:02 51°35.516 2°47.27 7 348 1.9 102190 34
2009-12-14 11:03 51°35.702 2°47.415 7.1 346 1.7 102200 33
2009-12-14 11:04 51°35.876 2°47.586 6.9 344 1.7 102190 36
2009-12-14 11:05 51°36.059 2°47.772 6.2 347 1.6 102200 36
2009-12-14 11:06 51°36.23 2°47.941 6.3 347 1.6 102190 36
2009-12-14 11:07 51°36.411 2°48.129 8.1 345 1.7 102190 35
2009-12-14 11:08 51°36.584 2°48.31 6.5 347 1.6 102200 34
2009-12-14 11:09 51°36.765 2°48.491 7.1 347 1.6 102200 32
2009-12-14 11:10 51°36.943 2°48.668 6.8 346 1.6 102200 32
2009-12-14 11:11 51°37.116 2°48.843 6.1 344 1.6 102210 32
2009-12-14 11:12 51°37.299 2°49.032 6.6 340 1.6 102200 32
2009-12-14 11:13 51°37.475 2°49.209 7.2 343 1.6 102210 33
2009-12-14 11:14 51°37.657 2°49.393 6.6 342 1.7 102210 34
2009-12-14 11:15 51°37.83 2°49.565 8.6 343 1.6 102200 35
2009-12-14 11:16 51°38.016 2°49.748 4.9 342 1.5 102220 31
2009-12-14 11:17 51°38.197 2°49.926 9.2 344 1.5 102210 33
2009-12-14 11:18 51°38.378 2°50.104 7 344 1.6 102210 32
2009-12-14 11:19 51°38.556 2°50.278 8.4 347 1.6 102210 33
2009-12-14 11:20 51°38.736 2°50.454 9.5 342 1.6 102200 34
2009-12-14 11:21 51°38.915 2°50.633 10.7 349 1.5 102210 35
2009-12-14 11:22 51°39.096 2°50.808 7.4 350 1.5 102210 33
2009-12-14 11:23 51°39.28 2°50.984 7.9 352 1.5 102200 34
2009-12-14 11:24 51°39.458 2°51.15 9.5 337 1.5 102200 33
2009-12-14 11:25 51°39.596 2°51.387 8.2 333 1.5 102210 34
2009-12-14 11:26 51°39.597 2°51.687 10.5 326 1.5 102210 35
2009-12-14 11:27 51°39.501 2°51.949 8.5 320 1.6 102200 33
2009-12-14 11:28 51°39.37 2°52.153 7.7 317 1.6 102200 33
2009-12-14 11:29 51°39.236 2°52.347 9.4 317 1.8 102200 34
2009-12-14 11:30 51°39.099 2°52.542 10.8 320 1.8 102200 35
2009-12-14 11:31 51°38.963 2°52.739 6.8 316 1.7 102200 32
2009-12-14 11:32 51°38.827 2°52.937 7.1 323 1.7 102200 32
2009-12-14 11:33 51°38.691 2°53.133 9.5 322 1.7 102190 33
2009-12-14 11:34 51°38.555 2°53.336 6.5 324 1.8 102200 34
2009-12-14 11:35 51°38.426 2°53.528 8.2 321 1.7 102190 34
2009-12-14 11:36 51°38.287 2°53.728 8.7 23 1.8 102190 35
2009-12-14 11:37 51°38.15 2°53.931 9.1 318 1.8 102180 35
2009-12-14 11:38 51°38.017 2°54.121 9.2 24 1.7 102180 33
2009-12-14 11:39 51°37.879 2°54.33 7.8 323 1.7 102190 34
2009-12-14 11:40 51°37.749 2°54.522 6 320 1.7 102190 34
2009-12-14 11:41 51°37.614 2°54.726 6.6 326 1.7 102190 35
2009-12-14 11:42 51°37.479 2°54.913 8.8 318 1.7 102190 33
2009-12-14 11:43 51°37.322 2°54.915 6 316 1.7 102190 32
2009-12-14 11:44 51°37.207 2°54.755 2.9 319 1.7 102190 35
2009-12-14 11:45 51°37.119 2°54.524 2 325 1.6 102200 36
2009-12-14 11:46 51°37.041 2°54.295 1.8 318 1.7 102200 34
2009-12-14 11:47 51°36.957 2°54.071 5.1 21 1.6 102190 31
2009-12-14 11:48 51°36.868 2°53.838 2.6 24 1.7 102200 34
2009-12-14 11:49 51°36.787 2°53.615 2.4 25 1.8 102200 31
2009-12-14 11:50 51°36.702 2°53.388 5.4 22 1.7 102200 33
2009-12-14 11:51 51°36.619 2°53.156 4.6 25 1.7 102200 32
2009-12-14 11:52 51°36.533 2°52.924 2.9 315 1.7 102190 36
2009-12-14 11:53 51°36.447 2°52.697 4 17 1.7 102190 32
2009-12-14 11:54 51°36.364 2°52.467 3.7 21 1.8 102190 32
2009-12-14 11:55 51°36.281 2°52.237 0.9 26 1.8 102200 37
2009-12-14 11:56 51°36.196 2°52.006 5.8 24 1.9 102180 32
2009-12-14 11:57 51°36.111 2°51.779 4.4 318 1.9 102180 32
2009-12-14 11:58 51°36.023 2°51.556 4.4 315 1.8 102190 35
2009-12-14 11:59 51°35.878 2°51.47 6.2 21 1.8 102180 32
2009-12-14 12:00 51°35.712 2°51.488 5.8 320 1.8 102180 35
2009-12-14 12:01 51°35.547 2°51.543 5.4 24 1.8 102180 34
2009-12-14 12:02 51°35.381 2°51.604 6.7 21 1.8 102190 32
2009-12-14 12:03 51°35.214 2°51.614 6.9 21 1.9 102170 33
2009-12-14 12:04 51°35.048 2°51.58 5.6 315 1.8 102170 32
2009-12-14 12:05 51°34.883 2°51.541 6.3 24 1.9 102170 33
2009-12-14 12:06 51°34.72 2°51.501 6.1 24 1.8 102180 34
2009-12-14 12:07 51°34.555 2°51.504 7.6 320 1.8 102170 32
2009-12-14 12:08 51°34.435 2°51.712 7.3 329 1.8 102160 33
2009-12-14 12:09 51°34.316 2°51.939 8.7 327 1.9 102160 33
2009-12-14 12:10 51°34.186 2°52.149 7.5 321 1.8 102160 36
2009-12-14 12:11 51°34.053 2°52.357 6.4 23 1.8 102160 36
2009-12-14 12:12 51°33.921 2°52.563 6.8 317 1.9 102160 33
2009-12-14 12:13 51°33.793 2°52.775 8.2 322 1.9 102160 35
2009-12-14 12:14 51°33.664 2°52.985 7.5 322 1.9 102160 33
2009-12-14 12:15 51°33.575 2°53.231 7.6 332 1.9 102160 35
2009-12-14 12:16 51°33.676 2°53.486 8.6 339 1.9 102150 33
2009-12-14 12:17 51°33.843 2°53.689 8.9 339 1.7 102150 33
2009-12-14 12:18 51°34.014 2°53.887 7.1 340 1.8 102150 33
2009-12-14 12:19 51°34.184 2°54.088 7 340 1.7 102150 33
2009-12-14 12:20 51°34.355 2°54.289 6.6 345 1.6 102150 32
2009-12-14 12:21 51°34.526 2°54.489 7.4 343 1.6 102150 34
2009-12-14 12:22 51°34.697 2°54.686 8.1 337 1.6 102150 35
2009-12-14 12:23 51°34.863 2°54.896 8.8 339 1.6 102160 35
2009-12-14 12:24 51°34.99 2°55.161 8.1 342 1.5 102150 34
2009-12-14 12:25 51°35.09 2°55.454 7.3 334 1.5 102160 32
2009-12-14 12:26 51°35.19 2°55.75 10 334 1.6 102150 34
2009-12-14 12:27 51°35.29 2°56.044 8.5 338 1.5 102150 35
2009-12-14 12:28 51°35.395 2°56.337 9.3 337 1.5 102150 34
2009-12-14 12:29 51°35.506 2°56.623 6.4 335 1.5 102150 34
2009-12-14 12:30 51°35.634 2°56.891 8.5 340 1.5 102160 34
2009-12-14 12:31 51°35.767 2°57.153 7.4 338 1.5 102150 32
2009-12-14 12:32 51°35.907 2°57.407 8.9 337 1.5 102150 32
2009-12-14 12:33 51°36.044 2°57.661 9.1 340 1.5 102140 35
2009-12-14 12:34 51°36.18 2°57.919 8.4 343 1.4 102140 33
2009-12-14 12:35 51°36.315 2°58.177 7.5 333 1.4 102140 34
2009-12-14 12:36 51°36.345 2°58.477 7.9 326 1.4 102150 30
2009-12-14 12:37 51°36.211 2°58.557 5.8 20 1.5 102140 34
2009-12-14 12:38 51°36.047 2°58.519 5 317 1.5 102140 34
2009-12-14 12:39 51°35.881 2°58.486 5.9 321 1.5 102140 35
2009-12-14 12:40 51°35.715 2°58.451 5.4 317 1.6 102140 32
2009-12-14 12:41 51°35.548 2°58.416 4.9 19 1.6 102140 35
2009-12-14 12:42 51°35.379 2°58.419 7.5 316 1.6 102130 33
2009-12-14 12:43 51°35.21 2°58.431 6.4 21 1.6 102130 35
2009-12-14 12:44 51°35.041 2°58.44 4.5 319 1.6 102140 34
2009-12-14 12:45 51°34.872 2°58.483 6.7 324 1.7 102130 32
2009-12-14 12:46 51°34.706 2°58.549 8.2 317 1.7 102130 34
2009-12-14 12:47 51°34.539 2°58.615 6.3 22 1.7 102130 32
2009-12-14 12:48 51°34.374 2°58.694 6 319 1.7 102130 33
2009-12-14 12:49 51°34.209 2°58.781 6.5 325 1.7 102130 34
2009-12-14 12:50 51°34.045 2°58.866 5.3 321 1.6 102140 35
2009-12-14 12:51 51°33.88 2°58.948 6.5 316 1.7 102140 33
2009-12-14 12:52 51°33.717 2°59.028 7 316 1.6 102120 31
2009-12-14 12:53 51°33.554 2°59.11 5.9 317 1.6 102130 32
2009-12-14 12:54 51°33.392 2°59.19 5.1 317 1.6 102140 35
2009-12-14 12:55 51°33.23 2°59.267 8 316 1.6 102150 32
2009-12-14 12:56 51°33.07 2°59.343 6.2 23 1.6 102130 35
2009-12-14 12:57 51°32.907 2°59.427 5.9 26 1.6 102130 35
2009-12-14 12:58 51°32.742 2°59.52 6.9 317 1.6 102130 32
2009-12-14 12:59 51°32.577 2°59.609 6.5 321 1.6 102130 35
2009-12-14 13:00 51°32.412 2°59.676 6.1 21 1.6 102140 30
2009-12-14 13:01 51°32.244 2°59.693 6.2 21 1.6 102140 33
2009-12-14 13:02 51°32.08 2°59.685 5.8 23 1.7 102140 32
2009-12-14 13:03 51°31.919 2°59.636 5.1 317 1.7 102140 31
2009-12-14 13:04 51°31.757 2°59.594 5.4 315 1.7 102140 32
2009-12-14 13:05 51°31.593 2°59.548 4.8 315 1.7 102140 34
2009-12-14 13:06 51°31.427 2°59.504 5.5 316 1.6 102140 35
2009-12-14 13:07 51°31.261 2°59.46 4.9 321 1.6 102140 32
2009-12-14 13:08 51°31.094 2°59.403 3.4 318 1.6 102140 30
2009-12-14 13:09 51°30.929 2°59.33 6.2 20 1.6 102140 31
2009-12-14 13:10 51°30.767 2°59.257 4.5 316 1.6 102140 32
2009-12-14 13:11 51°30.603 2°59.181 4.9 20 1.7 102140 36
2009-12-14 13:12 51°30.44 2°59.099 3.2 19 1.8 102140 35
2009-12-14 13:13 51°30.279 2°59.015 6.4 22 1.8 102140 35
2009-12-14 13:14 51°30.119 2°58.933 5.1 20 1.8 102140 33
2009-12-14 13:15 51°29.956 2°58.854 5.2 20 1.8 102140 35
2009-12-14 13:16 51°29.794 2°58.777 4.7 24 1.7 102140 31
2009-12-14 13:17 51°29.633 2°58.697 1.9 25 1.6 102140 35
2009-12-14 13:18 51°29.473 2°58.615 5.5 21 1.6 102140 32
2009-12-14 13:19 51°29.312 2°58.535 4.7 20 1.6 102140 32
2009-12-14 13:20 51°29.149 2°58.452 4.7 315 1.6 102140 34
2009-12-14 13:21 51°28.987 2°58.368 3.6 319 1.7 102130 32
2009-12-14 13:22 51°28.824 2°58.289 3.7 326 1.7 102140 36
2009-12-14 13:23 51°28.661 2°58.205 4.1 327 1.7 102130 33
2009-12-14 13:24 51°28.497 2°58.12 4.3 319 1.6 102140 31
2009-12-14 13:25 51°28.332 2°58.035 6 317 1.6 102130 32
2009-12-14 13:26 51°28.168 2°57.952 6 22 1.6 102130 32
2009-12-14 13:27 51°28.003 2°57.87 6.2 22 1.6 102120 32
2009-12-14 13:28 51°27.839 2°57.782 4.3 26 1.6 102130 34
2009-12-14 13:29 51°27.674 2°57.69 5.3 316 1.6 102130 35
2009-12-14 13:30 51°27.51 2°57.606 4.7 318 1.6 102120 33
2009-12-14 13:31 51°27.344 2°57.519 4.1 316 1.6 102130 32
2009-12-14 13:32 51°27.179 2°57.427 3.8 325 1.5 102130 31
2009-12-14 13:33 51°27.014 2°57.338 3.8 21 1.5 102120 36
2009-12-14 13:34 51°26.85 2°57.248 4.4 21 1.6 102120 33
2009-12-14 13:35 51°26.687 2°57.152 3.9 24 1.5 102120 35
2009-12-14 13:36 51°26.524 2°57.055 4.9 317 1.6 102120 35
2009-12-14 13:37 51°26.362 2°56.964 6.4 18 1.5 102130 33
2009-12-14 13:38 51°26.2 2°56.872 5 316 1.6 102120 35
2009-12-14 13:39 51°26.039 2°56.781 2.4 318 1.5 102130 36
2009-12-14 13:40 51°25.876 2°56.69 5.3 316 1.5 102130 35
2009-12-14 13:41 51°25.714 2°56.599 5.7 317 1.5 102130 32
2009-12-14 13:42 51°25.551 2°56.508 4.2 323 1.5 102130 32
2009-12-14 13:43 51°25.386 2°56.418 3.4 320 1.4 102130 36
2009-12-14 13:44 51°25.221 2°56.331 4.6 317 1.5 102120 32
2009-12-14 13:45 51°25.053 2°56.243 4.5 322 1.5 102120 32
2009-12-14 13:46 51°24.885 2°56.155 5.2 24 1.5 102120 35
2009-12-14 13:47 51°24.717 2°56.065 3.8 319 1.6 102120 34
2009-12-14 13:48 51°24.551 2°55.967 3.3 320 1.6 102120 31
2009-12-14 13:49 51°24.384 2°55.872 4 318 1.6 102120 36
2009-12-14 13:50 51°24.216 2°55.785 3.4 21 1.6 102120 35
2009-12-14 13:51 51°24.05 2°55.69 5.4 26 1.7 102120 33
2009-12-14 13:52 51°23.883 2°55.6 5.7 22 1.6 102110 35
2009-12-14 13:53 51°23.718 2°55.517 4.7 26 1.6 102110 35
2009-12-14 13:54 51°23.55 2°55.434 3.4 23 1.6 102120 35
2009-12-14 13:55 51°23.382 2°55.359 5.4 24 1.6 102110 31
2009-12-14 13:56 51°23.214 2°55.282 6.1 316 1.5 102120 31
2009-12-14 13:57 51°23.045 2°55.204 4 320 1.5 102120 31
2009-12-14 13:58 51°22.873 2°55.123 3.4 318 1.5 102120 34
2009-12-14 13:59 51°22.702 2°55.033 4.9 322 1.5 102110 33
2009-12-14 14:00 51°22.531 2°54.939 4.5 21 1.6 102110 35
2009-12-14 14:01 51°22.362 2°54.839 5.7 20 1.6 102110 32
2009-12-14 14:02 51°22.195 2°54.74 5 26 1.6 102110 35
2009-12-14 14:03 51°22.027 2°54.641 3.9 320 1.6 102110 32
2009-12-14 14:04 51°21.858 2°54.546 4.3 21 1.6 102120 34
2009-12-14 14:05 51°21.692 2°54.449 4.5 25 1.6 102120 31
2009-12-14 14:06 51°21.528 2°54.353 3 27 1.6 102120 32
2009-12-14 14:07 51°21.363 2°54.254 5.4 20 1.6 102120 35
2009-12-14 14:08 51°21.197 2°54.156 4.4 26 1.6 102120 35
2009-12-14 14:09 51°21.028 2°54.059 4.9 25 1.7 102110 35
2009-12-14 14:10 51°20.86 2°53.958 4.9 315 1.6 102110 33
2009-12-14 14:11 51°20.69 2°53.853 3.7 316 1.6 102120 34
2009-12-14 14:12 51°20.518 2°53.749 3.2 318 1.6 102120 33
2009-12-14 14:13 51°20.347 2°53.642 4.6 315 1.6 102110 31
2009-12-14 14:14 51°20.175 2°53.54 4.2 27 1.7 102110 32
2009-12-14 14:15 51°20.002 2°53.436 5.8 20 1.6 102110 31
2009-12-14 14:16 51°19.829 2°53.332 3.5 20 1.7 102100 31
2009-12-14 14:17 51°19.655 2°53.232 3.5 19 1.6 102110 33
2009-12-14 14:18 51°19.481 2°53.131 2.3 26 1.7 102110 34
2009-12-14 14:19 51°19.309 2°53.027 4 315 1.7 102110 31
2009-12-14 14:20 51°19.137 2°52.923 3.5 26 1.7 102110 32
2009-12-14 14:21 51°18.965 2°52.825 1.5 316 1.7 102110 35
2009-12-14 14:22 51°18.792 2°52.726 3.8 27 1.7 102110 34
2009-12-14 14:23 51°18.62 2°52.625 2.7 22 1.7 102110 33
2009-12-14 14:24 51°18.45 2°52.515 3 21 1.7 102120 31
2009-12-14 14:25 51°18.277 2°52.408 2.3 27 1.7 102110 31
2009-12-14 14:26 51°18.105 2°52.306 4 23 1.7 102110 30
2009-12-14 14:27 51°17.931 2°52.199 3.8 23 1.6 102110 34
2009-12-14 14:28 51°17.754 2°52.141 3.2 26 1.6 102110 33
2009-12-14 14:29 51°17.571 2°52.101 4.9 25 1.6 102110 31
2009-12-14 14:30 51°17.386 2°52.057 4.1 27 1.6 102110 31
2009-12-14 14:31 51°17.201 2°52.045 7.1 22 1.6 102110 31
2009-12-14 14:32 51°17.035 2°52.161 5.8 22 1.6 102110 31
2009-12-14 14:33 51°16.876 2°52.304 6.5 315 1.6 102110 34
2009-12-14 14:34 51°16.709 2°52.425 5 316 1.6 102110 31
2009-12-14 14:35 51°16.539 2°52.539 6.6 19 1.6 102110 34
2009-12-14 14:36 51°16.368 2°52.655 6.7 21 1.6 102110 33
2009-12-14 14:37 51°16.2 2°52.785 5.9 17 1.5 102110 34
2009-12-14 14:38 51°16.031 2°52.91 4.9 20 1.5 102110 34
2009-12-14 14:39 51°15.861 2°53.033 6.9 20 1.5 102100 32
2009-12-14 14:40 51°15.691 2°53.154 7 315 1.4 102120 31
2009-12-14 14:41 51°15.521 2°53.271 6 316 1.4 102120 33
2009-12-14 14:42 51°15.351 2°53.39 6.8 318 1.4 102130 31
2009-12-14 14:43 51°15.178 2°53.502 9.5 316 1.4 102120 32
2009-12-14 14:44 51°15.029 2°53.666 9.7 317 1.3 102120 30
2009-12-14 14:45 51°14.897 2°53.865 8.2 322 1.3 102100 31
2009-12-14 14:46 51°14.782 2°54.089 8.4 321 1.2 102100 31
2009-12-14 14:47 51°14.668 2°54.317 8.2 322 1.2 102090 31
2009-12-14 14:48 51°14.561 2°54.546 7.1 322 1.2 102090 33
2009-12-14 14:49 51°14.454 2°54.772 8 324 1.1 102090 31
2009-12-14 14:50 51°14.36 2°55.016 7.7 320 1.1 102100 31
2009-12-14 14:51 51°14.259 2°55.246 6.8 322 1.1 102090 32
2009-12-14 14:52 51°14.137 2°55.406 4.9 315 1 102100 31
2009-12-14 14:53 51°14.005 2°55.503 4.4 18 0.8 102110 33
2009-12-14 14:54 51°13.906 2°55.571 5.3 22 0.9 102120 30
2009-12-14 14:55 51°13.794 2°55.664 4.4 18 0.8 102120 29
2009-12-14 14:56 51°13.725 2°55.77 2.7 23 0.8 102110 30
2009-12-14 14:57 51°13.687 2°55.857 2.4 321 0.8 102110 30
2009-12-14 14:58 51°13.666 2°55.934 2.6 25 0.8 102120 33
2009-12-14 14:59 51°13.662 2°55.952 0.8 22 0.7 102120 30